Location: Unspecified
(42.9300°N, 71.1866°W)
Time: 04:07:25
(UTC-04:00)

GENESIS II - Visible Passes

Search period start: 24 March 2017 00:00
Search period end: 03 April 2017 00:00
Orbit: 491 x 545 km, 64.5° (Epoch: 22 March)

Date Brightness Start Highest point End Pass type
(mag) Time Alt. Az. Time Alt. Az. Time Alt. Az.
24 Mar 7.3 04:53:49 10° SE 04:55:18 12° ESE 04:56:48 10° E visible
25 Mar 7.2 04:38:36 10° SE 04:40:18 12° ESE 04:41:59 10° E visible
26 Mar 7.1 04:23:25 10° SE 04:25:17 13° ESE 04:27:09 10° E visible
26 Mar 4.4 05:58:28 10° SW 06:02:30 64° NW 06:06:35 10° NNE visible
27 Mar 7.0 04:08:26 11° SE 04:10:16 13° ESE 04:12:17 10° E visible
27 Mar 4.4 05:43:30 10° SW 05:47:31 61° NW 05:51:34 10° NNE visible
28 Mar 6.9 03:54:25 13° ESE 03:55:15 14° ESE 03:57:25 10° ENE visible
28 Mar 4.4 05:29:29 17° SW 05:32:31 58° NW 05:36:34 10° NNE visible
29 Mar 6.9 03:40:18 15° ESE 03:40:18 15° ESE 03:42:31 10° ENE visible
29 Mar 4.5 05:15:21 25° WSW 05:17:31 56° NW 05:21:34 10° NNE visible
30 Mar 7.0 03:26:04 14° E 03:26:04 14° E 03:27:37 10° ENE visible
30 Mar 4.5 05:01:06 34° WSW 05:02:32 54° NW 05:06:33 10° NNE visible
31 Mar 7.2 03:11:44 13° E 03:11:44 13° E 03:12:43 10° ENE visible
31 Mar 4.6 04:46:47 44° W 04:47:32 52° NW 04:51:32 10° NNE visible
01 Apr 7.3 02:57:20 12° ENE 02:57:20 12° ENE 02:57:47 10° ENE visible
01 Apr 4.6 04:32:23 49° WNW 04:32:32 49° NW 04:36:31 10° NNE visible
02 Apr 4.9 04:17:55 46° NNW 04:17:55 46° NNW 04:21:30 10° NNE visible
